This is the latest recevied weather packets stored in our database for station/object DL9GRB-13. If no packets are shown the sender has not sent any weather packets the latest 10 day(s).
| Time | Temp. | Humidity | Pressure | Rain* | Wind** | Luminosity | Snow |
|---|---|---|---|---|---|---|---|
| 1777139224 | 8.89° C | 68% | 1011.4 hPa | 0 mm | - | 20 W/m² | - |
| 1777139044 | 8.89° C | 68% | 1011.3 hPa | 0 mm | - | 22 W/m² | - |
| 1777138864 | 8.89° C | 67% | 1011.3 hPa | 0 mm | - | 24 W/m² | - |
| 1777138684 | 9.44° C | 68% | 1011.4 hPa | 0 mm | - | 36 W/m² | - |
| 1777138504 | 9.44° C | 69% | 1011.1 hPa | 0 mm | - | 39 W/m² | - |
| 1777138324 | 9.44° C | 69% | 1011.3 hPa | 0 mm | - | 34 W/m² | - |
| 1777138144 | 9.44° C | 69% | 1011.2 hPa | 0 mm | - | 37 W/m² | - |
| 1777137964 | 9.44° C | 69% | 1011.1 hPa | 0 mm | - | 28 W/m² | - |
| 1777137784 | 9.44° C | 68% | 1011.2 hPa | 0 mm | - | 42 W/m² | - |
| 1777137604 | 9.44° C | 68% | 1011 hPa | 0 mm | - | 45 W/m² | - |
| 1777137424 | 9.44° C | 68% | 1011.2 hPa | 0 mm | - | 38 W/m² | - |
| 1777137244 | 9.44° C | 67% | 1011.1 hPa | 0 mm | - | 52 W/m² | - |
| 1777137064 | 9.44° C | 67% | 1011.1 hPa | 0 mm | - | 57 W/m² | - |
| 1777136884 | 9.44° C | 67% | 1011.1 hPa | 0 mm | - | 56 W/m² | - |
| 1777136704 | 9.44° C | 66% | 1011 hPa | 0 mm | - | 61 W/m² | - |
| 1777136524 | 10° C | 66% | 1011.1 hPa | 0 mm | - | 63 W/m² | - |
| 1777136344 | 10° C | 65% | 1011.1 hPa | 0 mm | - | 63 W/m² | - |
| 1777136164 | 10.56° C | 64% | 1011 hPa | 0 mm | - | 70 W/m² | - |
| 1777135984 | 10.56° C | 64% | 1010.9 hPa | 0 mm | - | 97 W/m² | - |
| 1777135804 | 10.56° C | 64% | 1011 hPa | 0 mm | - | 58 W/m² | - |
| 1777135624 | 10.56° C | 64% | 1010.8 hPa | 0 mm | - | 85 W/m² | - |
| 1777135444 | 10.56° C | 65% | 1010.8 hPa | 0 mm | - | 86 W/m² | - |
| 1777135264 | 10.56° C | 65% | 1010.6 hPa | 0 mm | - | 107 W/m² | - |
| 1777135084 | 10.56° C | 64% | 1010.9 hPa | 0 mm | - | 95 W/m² | - |
| 1777134904 | 10.56° C | 65% | 1010.9 hPa | 0 mm | - | 73 W/m² | - |
* Rain latest hour (hover to see other rain measurements)
** Current wind speed in m/s (hover to see current wind gust speed)